Preview of NWS' New Version of Forecast
This preview is not operational and should not be used for support decisions.

Regional Weather Roundup (RWR)

Issued by National Weather Service (NWS)

                            
000
ASUS45 KBOU 170710
RWRCO 

WEATHER ROUNDUP FOR COLORADO
NATIONAL WEATHER SERVICE DENVER/BOULDER CO
100 AM MDT WED APR 17 2019

NOTE: "FAIR" INDICATES FEW OR NO CLOUDS BELOW 12000 FEET WITH NO
SIGNIFICANT WEATHER AND/OR OBSTRUCTIONS TO VISIBILITY.

COZ001>005-013-030-031-170800-
...NORTHWEST COLORADO...
  
CITY           SKY/WX    TMP DP  RH WIND       PRES   REMARKS
CRAIG          LGT RAIN  41  38  89 W7        30.00R                  
HAYDEN         LGT RAIN  40  38  93 W7        30.01R                  
MEEKER         CLOUDY    41  36  82 S3        29.99R                  
RANGELY        CLOUDY    45  40  84 E9        29.97S                  
RABBIT EARS PA SNOW      30  30 100 W10G20    30.04S VSB 1/4 WCI  21  
STEAMBOAT SPGS CLOUDY    39  36  88 SW3       30.00R                  
WALDEN         FAIR      34  30  86 S3        30.00S                  
$$

COZ006>008-011-170800-
...WEST CENTRAL VALLEYS...
  
CITY           SKY/WX    TMP DP  RH WIND       PRES   REMARKS
GRAND JUNCTION CLOUDY    50  37  61 N7        29.94R                  
MONTROSE       MOCLDY    47  32  56 NE5       29.96R                  
EAGLE          FAIR      41  29  62 E8        29.98R                  
RIFLE          MOCLDY    49  35  58 W7        29.94R                  
DELTA          FAIR      49  33  52 N7        29.91R                  
NUCLA          CLOUDY    46  34  61 NW7       29.98S                  
$$

COZ017>023-064>068-170800-
...SOUTHWEST COLORADO...
  
CITY           SKY/WX    TMP DP  RH WIND       PRES   REMARKS
DURANGO        CLOUDY    46  28  49 NW6       29.94S                  
CORTEZ         CLOUDY    50  33  52 CALM      29.94R                  
PAGOSA SPRINGS CLOUDY    38  28  66 CALM      29.99R                  
TELLURIDE      MOCLDY    36  25  64 CALM      30.03S                  
WOLF CREEK PAS CLOUDY    27  19  74 SW7       30.14S WCI  19          
$$

COZ009-010-012-014-032>034-037-058>063-170800-
...CENTRAL COLORADO...
  
CITY           SKY/WX    TMP DP  RH WIND       PRES   REMARKS
ASPEN          MOCLDY    35  25  66 SW7       29.98R WCI  29          
BUENA VISTA    FAIR      39  19  44 W6        29.95S                  
COPPER MTN     FAIR      30  23  74 W12       30.07F WCI  21          
BERTHOUD PASS  CLOUDY    21  10  63 NW25G33   30.06S WCI   4          
COTTONWOOD PAS FAIR      37  19  48 W10G23    30.00S                  
GUNNISON       FAIR      34  27  75 CALM      29.98R                  
GRANBY         FAIR      32  26  77 SE5       30.00R WCI  28          
KREMMLING      FAIR      39  32  75 NW6       30.00R                  
LEADVILLE      FAIR      30  20  66 N5        30.01S WCI  25          
MONARCH PASS   FAIR      28  18  64 W22       30.17S WCI  15          
SALIDA         FAIR      44  24  44 SW5       30.01R                  
SUNLIGHT       CLOUDY    28  27  93 W8        30.09S WCI  20          
WILKERSON PASS FAIR      32  16  51 NW9G16    30.05S WCI  24          
$$

COZ069>075-170800-
...SAN LUIS VALLEY/SANGRE DE CRISTO MOUNTAINS...
  
CITY           SKY/WX    TMP DP  RH WIND       PRES   REMARKS
ALAMOSA        FAIR      42  22  44 NW6       29.94S                  
DEL NORTE      FAIR      37  21  53 W10       29.97F                  
LA VETA PASS   NOT AVBL                                               
SAGUACHE       FAIR      36  23  60 CALM      29.96S                  
$$

COZ035-036-038>040-170800-
...NORTHERN COLORADO FRONT RANGE...
  
CITY           SKY/WX    TMP DP  RH WIND       PRES   REMARKS
DENVER INTL AP MOCLDY    43  38  82 S6        29.84R                  
AURORA         MOCLDY    44  38  80 E8        29.85R                  
FRONT RANGE AP CLOUDY    51  41  70 CALM      29.85R                  
ERIE MUNI ARPT FAIR      40  37  87 CALM      29.87R                  
BOULDER MUN AP FAIR      48  32  53 S5        29.82R                  
CENTENNIAL     MOCLDY    46  38  73 E7        29.85R                  
BROOMFIELD     FAIR      45  39  81 CALM      29.84R                  
FORT COLLINS   FAIR      48  37  65 NE3       29.82R                  
LONGMONT       FAIR      45  39  79 NW6       29.83R                  
$$

COZ041-046-047-076>085-087-088-170800-
...PIKES PEAK/PALMER DIVIDE AND SOUTHERN FOOTHILLS...
  
CITY           SKY/WX    TMP DP  RH WIND       PRES   REMARKS
COLO. SPRINGS  MOCLDY    50  31  48 N12       29.84R                  
A. F. ACADEMY  FAIR      53  21  29 NW14      29.83R                  
SCHRIEVER AFB  NOT AVBL                                               
CHEYENNE MTN   MOCLDY    52  27  38 SW6       29.81R                  
ELLICOTT         N/A    N/A N/A N/A N9        29.82R                  
FALCON         NOT AVBL                                               
FORT CARSON    FAIR      49  35  57 SW5       29.82R                  
LIMON          MOCLDY    49  44  83 N16       29.79R                  
MONUMENT HILL  FAIR      41  36  81 NW12G18   29.90R                  
CANON CITY     FAIR      55  28  35 W10       29.81S                  
WALSENBURG     NOT AVBL                                               
TRINIDAD       FAIR      45  26  47 NW9       29.83S                  
$$

COZ042>045-048>051-090-091-170800-
...NORTHEAST COLORADO...
  
CITY           SKY/WX    TMP DP  RH WIND       PRES   REMARKS
GREELEY ARPT   MOCLDY    51  34  52 N13       29.81R                  
AKRON          CLOUDY    51  47  86 NE8       29.77R                  
BURLINGTON     FAIR      56  47  71 N10       29.70R                  
WRAY           CLOUDY    54  46  76 N9        29.74R                  
YUMA           NOT AVBL                                               
STERLING       FAIR      50  48  93 N3        29.77R                  
HOLYOKE        LGT RAIN  54  46  76 N12G22      N/A                   
FORT MORGAN      N/A     49  42  78 N9        29.81R                  
$$

COZ086-089-092>099-170800-
...SOUTHEAST COLORADO...
  
CITY           SKY/WX    TMP DP  RH WIND       PRES   REMARKS
PUEBLO         FAIR      55  36  48 N5        29.78R                  
LA JUNTA       FAIR      56  39  53 W14       29.74R                  
LAMAR          FAIR      54  36  50 W9        29.66S                  
SPRINGFIELD      N/A     52  33  48 W12       29.74R                  
$$